Find Starlink 37982

NORAD ID: 100285 Int'l Des: 2026-183 Owner: SPXS Country: US Constellation: starlink operational

Current View

Loading 3D Globe...

About Starlink 37982

Starlink 37982 (NORAD 100285) is a starlink constellation satellite launched Aug 11, 2026 by SPXS of US. with a mass of 575.00 kg.

Upcoming Passes

Passes for default location (London). Set your location on the main map for personalized predictions.

Altitude History

Loading altitude history...

Two-Line Element Set

1 A0285U 26183P 26251.68152251 -.00983050 00000-0 -84074-2 0 9993
2 A0285 53.1592 315.1828 0002188 37.2582 322.8588 15.71215578 4457
Epoch: Sep 8, 2026 • Age: 78 hours

Current Status

Altitude 373.5 km
Apogee / Perigee N/A
Velocity 7.69 km/s
Sub-Earth Point 30.84°N, 3.5°W
Launch Date Aug 11, 2026
Age 31 days
Type internet

Technical Details

Classification Payload
Mass 575.00 kg
Dry Mass 530.00 kg
Total Mass 575.00 kg
Length 0.30 m
Diameter 4.10 m
Span 29.00 m
Shape Box + pan
Manufacturer SPXS
Bus Type Starlink V2MO
Phase Status In Orbit
Owner/State SPXS/US

Most Searched